Regional Weather Roundup
Issued by NWS Cleveland, OH

Home | Current Version | Previous Version | Graphics & Text | Print | Product List | Glossary On
Versions: 1 2 3 4 5 6 7 8 9 10 11 12 13 14 15 16 17 18 19 20 21 22 23 24 25 26 27 28 29 30 31 32 33 34 35 36 37 38 39 40 41 42 43 44 45 46 47 48 49 50
000
ASUS41 KCLE 292110
RWRCLE
OHIO REGIONAL WEATHER ROUNDUP
NATIONAL WEATHER SERVICE WILMINGTON, OH
500 PM EDT SUN MAR 29 2015

NOTE: "FAIR" INDICATES FEW OR NO CLOUDS BELOW 12,000 FEET WITH NO
SIGNIFICANT WEATHER AND/OR OBSTRUCTIONS TO VISIBILITY.

OHZ001>008-015>018-024>027-034-035-043-044-292200-
   NORTHWEST OHIO

CITY           SKY/WX    TMP DP  RH WIND       PRES   REMARKS
DEFIANCE       NOT AVBL
FINDLAY        CLOUDY    44  19  36 S22G33    29.95F
TOLEDO EXPRESS CLOUDY    44  16  32 S14G30    29.91F
TOLEDO EXEC    CLOUDY    45  16  31 S26G35    29.93F
LIMA           CLOUDY    45  19  35 S18G26    29.95F
$$

OHZ009>014-019>023-028>033-038-089-292200-
   NORTHEAST OHIO

CITY           SKY/WX    TMP DP  RH WIND       PRES   REMARKS
CLE-HOPKINS    CLOUDY    43  13  29 S16G33    30.03F
CLE-LAKEFRONT  CLOUDY    45  12  26 S22G33    30.00F
CUY CO. ARPT   PTSUNNY   45  16  31 S12G21    30.02F
LORAIN-ELYRIA  LGT RAIN  43  15  32 S23G37    29.99F
ASHTABULA      PTSUNNY   42  13  30 S20G30    30.03F
AKRON-CANTON   CLOUDY    44  11  26 S20G29    30.05F
WOOSTER        PTSUNNY   43  16  33 S18G29    30.05F
MANSFIELD      PTSUNNY   43  18  36 S21G32    30.00F
YOUNGSTOWN     PTSUNNY   43  11  27 S15G24    30.05F
$$

OHZ042-051>053-060>062-070>072-077>081-292200-
  SOUTHWEST OHIO

CITY           SKY/WX    TMP DP  RH WIND       PRES   REMARKS
CINC-COVINGTON CLOUDY    49  15  25 S17G26    30.02F
CINC-LUNKEN    CLOUDY    50  15  24 S16G29    30.03F
HAMILTON       CLOUDY    51  11  20 S10G24    30.00F
DAYTON         CLOUDY    47  13  25 S17G31    29.96F
WRIGHT-PAT AFB CLOUDY    46  12  25 S15G28    29.98F
DAYTON GENERAL CLOUDY    46  13  26 S21G29    29.98F
WILMINGTON     CLOUDY    45  16  31 S16G24    30.03F
$$

OHZ036-037-039>041-045>050-054>059-063>069-073>076-082>088-292200-
  CENTRAL AND SOUTHEAST OHIO

CITY           SKY/WX    TMP DP  RH WIND       PRES   REMARKS
COLUMBUS       CLOUDY    46  12  25 S16G30    30.07F
OSU AIRPORT    PTSUNNY   46  13  26 S17G29    30.04F
BOLTON FIELD   SUNNY     46  19  34 S17       30.05F
RICKENBACK AFB PTSUNNY   47  13  25 S18G30    30.06F
NEWARK         PTSUNNY   47  10  22 S17       30.07F
MARION         PTSUNNY   45  15  30 S26G33    30.00F
LANCASTER      PTSUNNY   47   9  21 S18G26    30.09F
ZANESVILLE     PTSUNNY   46   8  21 S20       30.10F
NEW PHILLY     CLOUDY    46  12  25 S14G20    30.10F
$$



USA.gov is the U.S. government's official web portal to all federal, state and local government web resources and services.